Location: Westminster
(33.3626°N, 96.4619°W)
Time: 20:41:07
(UTC+00:00)

Cosmos 1515 Rocket - Pass Details

Date: 03 December 2021
Orbit: 606 x 630 km, 82.5° (Epoch: 26 January)

Event Time Altitude Azimuth Distance (km) Brightness Sun altitude
Rises 12:22:51 0° 355° (N) 2,884 6.7 -10.6°
Reaches altitude 10° 12:25:06 10° 358° (N) 1,971 5.9 -10.1°
Maximum altitude 12:29:27 74° 82° (E) 636 3.8 -9.3°
Drops below altitude 10° 12:33:45 10° 169° (SSE) 1,948 6.6 -8.4°
Sets 12:35:57 0° 171° (S) 2,846 7.4 -8.0°
